| time (UTC) | temp F | wind direction | speed MPH | gust MPH | rain 1hr in | rain 24hr in | rain mn in | humidity % | barometer mb |
| 20260508205018 | 62 | 248 | 5.0 | 18.0 | 0.00 | 0.01 | 0.01 | 41 | 1008.6 |
| 20260508204018 | 64 | 225 | 9.0 | 25.0 | 0.00 | 0.01 | 0.01 | 39 | 1008.3 |
| 20260508203019 | 65 | 203 | 10.0 | 20.0 | 0.00 | 0.01 | 0.01 | 38 | 1008.3 |
| 20260508200016 | 68 | 248 | 9.0 | 17.0 | 0.00 | 0.01 | 0.01 | 37 | 1008.5 |
| 20260508195023 | 67 | 248 | 9.0 | 20.0 | 0.00 | 0.01 | 0.01 | 38 | 1008.7 |
| 20260508194025 | 66 | 225 | 8.0 | 21.0 | 0.00 | 0.01 | 0.01 | 38 | 1008.8 |
| 20260508192014 | 66 | 203 | 9.0 | 20.0 | 0.00 | 0.01 | 0.01 | 38 | 1009.2 |
| 20260508184016 | 67 | 225 | 8.0 | 16.0 | 0.00 | 0.01 | 0.01 | 39 | 1009.6 |
| 20260508183015 | 68 | 225 | 10.0 | 15.0 | 0.00 | 0.01 | 0.01 | 38 | 1009.6 |
| 20260508181018 | 67 | 248 | 14.0 | 22.0 | 0.00 | 0.01 | 0.01 | 37 | 1009.9 |
| 20260508180013 | 68 | 225 | 12.0 | 20.0 | 0.00 | 0.01 | 0.01 | 37 | 1009.9 |
| 20260508175015 | 72 | 225 | 8.0 | 17.0 | 0.00 | 0.01 | 0.01 | 36 | 1010.1 |
| 20260508173024 | 76 | 248 | 2.0 | 14.0 | 0.00 | 0.01 | 0.01 | 34 | 1010.5 |
| 20260508172023 | 77 | 248 | 2.0 | 8.0 | 0.00 | 0.01 | 0.01 | 35 | 1010.8 |
| 20260508171013 | 70 | 270 | 0.0 | 10.0 | 0.00 | 0.01 | 0.01 | 42 | 1011.1 |
| 20260508170024 | 70 | 248 | 1.0 | 9.0 | 0.00 | 0.01 | 0.01 | 39 | 1011.4 |
| 20260508164019 | 74 | 270 | 2.0 | 9.0 | 0.00 | 0.01 | 0.01 | 41 | 1012.0 |
| 20260508163014 | 73 | 270 | 0.0 | 8.0 | 0.00 | 0.01 | 0.01 | 39 | 1012.2 |
| 20260508162023 | 73 | 248 | 3.0 | 10.0 | 0.00 | 0.01 | 0.01 | 36 | 1012.2 |
| 20260508161017 | 68 | 270 | 0.0 | 7.0 | 0.00 | 0.01 | 0.01 | 40 | 1012.2 |
| 20260508155022 | 62 | 248 | 0.0 | 16.0 | 0.00 | 0.01 | 0.01 | 46 | 1012.2 |
| 20260508154019 | 60 | 248 | 5.0 | 16.0 | 0.00 | 0.01 | 0.01 | 46 | 1012.3 |
| 20260508153014 | 60 | 248 | 5.0 | 14.0 | 0.00 | 0.01 | 0.01 | 43 | 1012.2 |
| 20260508152015 | 60 | 248 | 6.0 | 12.0 | 0.00 | 0.01 | 0.01 | 43 | 1012.4 |
| 20260508151013 | 58 | 225 | 3.0 | 10.0 | 0.00 | 0.01 | 0.01 | 46 | 1012.3 |
| 20260508150022 | 57 | 248 | 6.0 | 10.0 | 0.00 | 0.01 | 0.01 | 53 | 1012.4 |
| 20260508145017 | 56 | 225 | 5.0 | 7.0 | 0.00 | 0.01 | 0.01 | 52 | 1012.2 |
| 20260508144017 | 55 | 225 | 3.0 | 8.0 | 0.00 | 0.01 | 0.01 | 53 | 1012.4 |
| 20260508143025 | 53 | 225 | 2.0 | 7.0 | 0.00 | 0.01 | 0.01 | 47 | 1012.5 |
| 20260508135019 | 51 | 248 | 1.0 | 9.0 | 0.00 | 0.01 | 0.01 | 48 | 1012.4 |
| 20260508134018 | 50 | 225 | 0.0 | 9.0 | 0.00 | 0.01 | 0.01 | 48 | 1012.4 |
| 20260508130013 | 51 | 248 | 6.0 | 9.0 | 0.00 | 0.01 | 0.01 | 47 | 1012.4 |
| 20260508124019 | 51 | 225 | 5.0 | 10.0 | 0.00 | 0.01 | 0.01 | 49 | 1012.3 |
| 20260508123016 | 50 | 225 | 6.0 | 12.0 | 0.00 | 0.01 | 0.01 | 52 | 1012.4 |
| 20260508121018 | 50 | 248 | 5.0 | 10.0 | 0.00 | 0.01 | 0.01 | 53 | 1012.0 |
| 20260508120016 | 50 | 203 | 2.0 | 12.0 | 0.00 | 0.01 | 0.01 | 53 | 1012.0 |
| 20260508115019 | 49 | 225 | 6.0 | 9.0 | 0.00 | 0.01 | 0.01 | 49 | 1012.1 |
| 20260508114025 | 49 | 248 | 7.0 | 8.0 | 0.00 | 0.01 | 0.01 | 49 | 1011.8 |
| 20260508112015 | 48 | 225 | 2.0 | 9.0 | 0.00 | 0.01 | 0.01 | 49 | 1011.7 |
| 20260508111022 | 47 | 225 | 2.0 | 7.0 | 0.00 | 0.01 | 0.01 | 50 | 1011.6 |
| 20260508110016 | 47 | 225 | 3.0 | 7.0 | 0.00 | 0.01 | 0.01 | 51 | 1011.5 |
| 20260508104014 | 46 | 225 | 3.0 | 7.0 | 0.00 | 0.01 | 0.01 | 50 | 1011.5 |
| 20260508102023 | 46 | 248 | 2.0 | 7.0 | 0.00 | 0.01 | 0.01 | 51 | 1011.5 |
| 20260508095023 | 46 | 248 | 1.0 | 9.0 | 0.00 | 0.01 | 0.01 | 51 | 1011.6 |
| 20260508093025 | 46 | 225 | 3.0 | 9.0 | 0.00 | 0.01 | 0.01 | 50 | 1011.4 |
| 20260508084022 | 46 | 225 | 6.0 | 9.0 | 0.00 | 0.01 | 0.01 | 50 | 1011.5 |
| 20260508075019 | 45 | 248 | 0.0 | 6.0 | 0.00 | 0.01 | 0.01 | 53 | 1011.7 |
| 20260508074012 | 45 | 225 | 1.0 | 6.0 | 0.00 | 0.01 | 0.01 | 53 | 1011.9 |
| 20260508073022 | 45 | 225 | 3.0 | 6.0 | 0.00 | 0.01 | 0.01 | 54 | 1012.0 |
| 20260508070015 | 41 | 180 | 0.0 | 0.0 | 0.00 | 0.01 | 0.01 | 62 | 1012.1 |
| 20260508065022 | 40 | 180 | 0.0 | 0.0 | 0.00 | 0.01 | 0.01 | 78 | 1012.1 |
| 20260508064016 | 41 | 180 | 0.0 | 0.0 | 0.00 | 0.01 | 0.01 | 77 | 1012.2 |
| 20260508063021 | 42 | 180 | 0.0 | 0.0 | 0.00 | 0.01 | 0.01 | 63 | 1012.4 |
| 20260508062019 | 43 | 180 | 0.0 | 0.0 | 0.00 | 0.01 | 0.01 | 72 | 1012.3 |
| 20260508054020 | 45 | 248 | 2.0 | 6.0 | 0.01 | 0.01 | 0.01 | 73 | 1012.5 |
| 20260508053016 | 46 | 135 | 0.0 | 0.0 | 0.01 | 0.01 | 0.01 | 78 | 1012.4 |
| 20260508052018 | 46 | 90 | 0.0 | 0.0 | 0.01 | 0.01 | 0.01 | 77 | 1012.7 |
| 20260508050015 | 47 | 0 | 2.0 | 7.0 | 0.00 | 0.00 | 0.00 | 73 | 1013.6 |
| 20260508042014 | 47 | 180 | 0.0 | 0.0 | 0.00 | 0.00 | 0.00 | 71 | 1012.1 |
| 20260508041013 | 46 | 180 | 0.0 | 0.0 | 0.00 | 0.00 | 0.00 | 73 | 1012.2 |
| 20260508035015 | 46 | 270 | 0.0 | 0.0 | 0.00 | 0.00 | 0.00 | 77 | 1012.4 |
| 20260508034016 | 46 | 270 | 0.0 | 0.0 | 0.00 | 0.00 | 0.00 | 77 | 1012.6 |
| 20260508032018 | 46 | 270 | 0.0 | 0.0 | 0.00 | 0.00 | 0.00 | 76 | 1012.6 |
| 20260508031020 | 46 | 270 | 0.0 | 0.0 | 0.00 | 0.00 | 0.00 | 77 | 1012.5 |
| 20260508024013 | 46 | 270 | 0.0 | 0.0 | 0.00 | 0.00 | 0.00 | 75 | 1012.6 |
| 20260508023017 | 46 | 270 | 0.0 | 0.0 | 0.00 | 0.00 | 0.00 | 75 | 1012.5 |
| 20260508022014 | 46 | 270 | 0.0 | 0.0 | 0.00 | 0.00 | 0.00 | 72 | 1012.5 |
| 20260508020012 | 46 | 270 | 0.0 | 0.0 | 0.00 | 0.00 | 0.00 | 64 | 1012.8 |
| 20260508015016 | 46 | 270 | 0.0 | 0.0 | 0.00 | 0.00 | 0.00 | 57 | 1012.5 |
| 20260508013018 | 48 | 270 | 0.0 | 0.0 | 0.00 | 0.00 | 0.00 | 47 | 1012.4 |
| 20260508010024 | 52 | 270 | 0.0 | 8.0 | 0.00 | 0.00 | 0.00 | 51 | 1012.3 |
| 20260508005021 | 52 | 270 | 2.0 | 8.0 | 0.00 | 0.00 | 0.00 | 45 | 1012.4 |
| 20260508003016 | 53 | 293 | 0.0 | 6.0 | 0.00 | 0.00 | 0.00 | 43 | 1012.5 |
| 20260508002012 | 54 | 270 | 0.0 | 2.0 | 0.00 | 0.00 | 0.00 | 41 | 1012.4 |
| 20260507234013 | 55 | 270 | 0.0 | 3.0 | 0.00 | 0.00 | 0.00 | 39 | 1012.1 |
| 20260507233013 | 56 | 248 | 0.0 | 2.0 | 0.00 | 0.00 | 0.00 | 40 | 1012.0 |
| 20260507232012 | 57 | 293 | 0.0 | 3.0 | 0.00 | 0.00 | 0.00 | 38 | 1012.0 |
| 20260507230013 | 59 | 293 | 0.0 | 6.0 | 0.00 | 0.00 | 0.00 | 37 | 1012.0 |
| 20260507224015 | 60 | 293 | 0.0 | 3.0 | 0.00 | 0.00 | 0.00 | 37 | 1012.1 |
| 20260507222024 | 65 | 293 | 0.0 | 6.0 | 0.00 | 0.00 | 0.00 | 34 | 1012.2 |
| 20260507221015 | 66 | 315 | 2.0 | 6.0 | 0.00 | 0.00 | 0.00 | 35 | 1012.2 |
| 20260507220022 | 66 | 270 | 0.0 | 5.0 | 0.00 | 0.00 | 0.00 | 36 | 1012.2 |
| 20260507215015 | 63 | 293 | 0.0 | 7.0 | 0.00 | 0.00 | 0.00 | 35 | 1012.1 |
| 20260507212011 | 67 | 248 | 1.0 | 10.0 | 0.00 | 0.00 | 0.00 | 34 | 1012.1 |
| 20260507210015 | 68 | 293 | 1.0 | 12.0 | 0.00 | 0.00 | 0.00 | 33 | 1012.2 |